Change the Weather History Date:

Wednesday, May 2, 2012

  Actual Average Record
Temperature  
Mean Temperature 22 °F -  
Max Temperature 33 °F 43 °F 68 °F (2014)
Min Temperature 12 °F 30 °F 10 °F (2001)
Degree Days  
Heating Degree Days 42    
Moisture  
Dew Point 8 °F    
Average Humidity 53    
Maximum Humidity 73    
Minimum Humidity 37    
Precipitation  
Precipitation 0.00 in - - ()
Sea Level Pressure  
Sea Level Pressure 29.78 in    
Wind  
Wind Speed 3 mph (SSW)    
Max Wind Speed 13 mph    
Max Gust Speed -    
Visibility 10 miles    
Events      
Averages and records for this station are not official NWS values.
T = Trace of Precipitation, MM = Missing Value Source: NWS Daily Summary

Daily Weather History Graph

Daily Weather History Graph

Search for Another Location

Airport or City:

Trip Planner

Search our weather history database for the weather conditions in past years. The results will help you decide how hot, cold, wet, or windy it might be!

Date:

Astronomy

May. 02, 2012 Rise Set
Actual Time 5:59 AM AKDT 10:44 PM AKDT
Civil Twilight 4:54 AM AKDT 11:50 PM AKDT
Nautical Twilight 2:53 AM AKDT 1:48 AM AKDT
Astronomical Twilight Sun does not rise Sun does not rise
Moon 6:07 PM AKDT 4:50 AM AKDT
Length of Visible Light 18h 55m
Length of Day
16h 45m
Waxing Gibbous, 84% of the Moon is Illuminated
May 2
Waxing Gibbous
May 5
Full
May 12
Last Quarter
May 20
New
May 28
First Quarter

Hourly Weather History & Observations

Time (AKDT) Temp. Windchill Dew Point Humidity Pressure Visibility Wind Dir Wind Speed Gust Speed Precip Events Conditions
12:55 AM 18.0 °F 12.7 °F 6.1 °F 60% 29.83 in 10.0 mi WNW 3.5 mph - N/A   Clear
1:55 AM 16.0 °F - 5.0 °F 62% 29.83 in 10.0 mi Calm Calm - N/A   Clear
2:55 AM 15.1 °F - 6.1 °F 68% 29.83 in 10.0 mi Calm Calm - N/A   Clear
3:55 AM 15.1 °F 9.4 °F 5.0 °F 64% 29.83 in 10.0 mi WNW 3.5 mph - N/A   Clear
4:55 AM 12.9 °F 6.9 °F 4.1 °F 68% 29.82 in 10.0 mi WSW 3.5 mph - N/A   Clear
6:10 AM 12.2 °F - 3.2 °F 67% 29.82 in 10.0 mi Calm Calm - N/A   Partly Cloudy
6:55 AM 12.2 °F - 5.0 °F 73% 29.83 in 10.0 mi Calm Calm - N/A   Partly Cloudy
7:55 AM 15.8 °F - 5.0 °F 62% 29.83 in 10.0 mi Calm Calm - N/A   Partly Cloudy
8:55 AM 19.4 °F - 6.8 °F 58% 29.82 in 10.0 mi Calm Calm - N/A   Clear
9:55 AM 21.2 °F - 6.8 °F 54% 29.83 in 10.0 mi Calm Calm - N/A   Partly Cloudy
10:55 AM 23.0 °F 15.8 °F 6.8 °F 50% 29.82 in 10.0 mi South 5.8 mph - N/A   Partly Cloudy
11:55 AM 24.8 °F 17.9 °F 6.8 °F 46% 29.81 in 10.0 mi South 5.8 mph - N/A   Partly Cloudy
12:55 PM 26.6 °F 17.5 °F 8.6 °F 47% 29.79 in 10.0 mi South 9.2 mph - N/A   Partly Cloudy
2:55 PM 32.0 °F 22.5 °F 10.0 °F 40% 29.75 in 10.0 mi SSW 12.7 mph - N/A   Mostly Cloudy
4:55 PM 30.9 °F 25.2 °F 8.1 °F 38% 29.74 in 10.0 mi SSW 5.8 mph - N/A   Mostly Cloudy
5:55 PM 32.0 °F - 9.1 °F 38% 29.72 in 10.0 mi Calm Calm - N/A   Mostly Cloudy
6:55 PM 33.1 °F 25.5 °F 9.1 °F 37% 29.71 in 10.0 mi SSW 9.2 mph - N/A   Overcast
7:55 PM 32.0 °F 27.5 °F 10.0 °F 40% 29.70 in 10.0 mi SSW 4.6 mph - N/A   Mostly Cloudy
8:55 PM 33.1 °F 28.7 °F 10.0 °F 38% 29.69 in 10.0 mi SSW 4.6 mph - N/A   Overcast
9:55 PM 30.9 °F 25.2 °F 11.1 °F 44% 29.69 in 10.0 mi SW 5.8 mph - N/A   Mostly Cloudy
10:55 PM 30.0 °F 26.5 °F 13.1 °F 49% 29.69 in 10.0 mi South 3.5 mph - N/A   Overcast
11:55 PM 27.0 °F - 12.0 °F 53% 29.68 in 10.0 mi Calm Calm - N/A   Scattered Clouds